Location: Antioch Church
(34.9543°N, 88.5145°W)
Time: 14:15:13
(UTC+00:00)

SMAP - Pass Details

Date: 11 December 2019
Orbit: 681 x 684 km, 98.1° (Epoch: 26 January)

Event Time Altitude Azimuth Distance (km) Brightness Sun altitude
Rises 11:42:01 0° 20° (NNE) 3,049 6.4 -13.9°
Reaches altitude 10° 11:44:22 10° 27° (NNE) 2,130 5.7 -13.5°
Maximum altitude 11:48:48 43° 99° (E) 952 4.4 -12.6°
Drops below altitude 10° 11:53:12 10° 171° (S) 2,114 6.0 -11.8°
Sets 11:55:31 0° 178° (S) 3,025 6.7 -11.3°
